This is the latest recevied weather packets stored in our database for station/object K5NWZ. If no packets are shown the sender has not sent any weather packets the latest 10 day(s).
| Time | Temp. | Humidity | Pressure | Rain* | Wind** | Luminosity | Snow |
|---|---|---|---|---|---|---|---|
| 1787696464 | 28.89° C | 36% | 1032.4 hPa | 0 mm | - | 401 W/m² | - |
| 1787696160 | 30.56° C | 34% | 1032.6 hPa | 0 mm | - | 415 W/m² | - |
| 1787695859 | 30.56° C | 35% | 1032.6 hPa | 0 mm | - | 428 W/m² | - |
| 1787695555 | 30° C | 34% | 1032.7 hPa | 0 mm | - | 442 W/m² | - |
| 1787695251 | 30° C | 35% | 1032.4 hPa | 0 mm | - | 468 W/m² | - |
| 1787694949 | 28.89° C | 36% | 1033 hPa | 0 mm | - | 496 W/m² | - |
| 1787694644 | 28.89° C | 36% | 1033 hPa | 0 mm | - | 529 W/m² | - |
| 1787694339 | 27.78° C | 38% | 1032.7 hPa | 0 mm | - | 290 W/m² | - |
| 1787694034 | 27.22° C | 38% | 1032.9 hPa | 0 mm | - | 194 W/m² | - |
| 1787693731 | 27.78° C | 38% | 1033.1 hPa | 0 mm | - | 155 W/m² | - |
| 1787693426 | 27.78° C | 37% | 1033.4 hPa | 0 mm | - | 136 W/m² | - |
| 1787693122 | 28.33° C | 38% | 1033.8 hPa | 0 mm | - | 190 W/m² | - |
| 1787692818 | 30° C | 37% | 1033.6 hPa | 0 mm | - | 237 W/m² | - |
| 1787692513 | 29.44° C | 35% | 1033.7 hPa | 0 mm | - | 641 W/m² | - |
| 1787692212 | 28.89° C | 34% | 1033.7 hPa | 0 mm | - | 608 W/m² | - |
| 1787691907 | 28.33° C | 36% | 1033.8 hPa | 0 mm | - | 606 W/m² | - |
| 1787691606 | 27.78° C | 36% | 1033.6 hPa | 0 mm | - | 631 W/m² | - |
| 1787691305 | 27.78° C | 37% | 1033.7 hPa | 0 mm | - | 671 W/m² | - |
| 1787691000 | 27.22° C | 38% | 1033.7 hPa | 0 mm | - | 629 W/m² | - |
| 1787690700 | 27.22° C | 36% | 1033.7 hPa | 0 mm | - | 314 W/m² | - |
| 1787690395 | 26.11° C | 40% | 1033.4 hPa | 0 mm | - | 309 W/m² | - |
| 1787690091 | 26.11° C | 38% | 1033.7 hPa | 0 mm | - | 158 W/m² | - |
| 1787689787 | 25.56° C | 40% | 1034 hPa | 0 mm | - | 160 W/m² | - |
| 1787689482 | 25.56° C | 48% | 1034.4 hPa | 0 mm | - | 172 W/m² | - |
| 1787689182 | 26.11° C | 44% | 1034.4 hPa | 0 mm | - | 161 W/m² | - |
* Rain latest hour (hover to see other rain measurements)
** Current wind speed in m/s (hover to see current wind gust speed)